INTELSAT 905 (IS-905)

Last updated on Tue Sep 22 2026 00:03:10 GMT+0000 (Coordinated Universal Time)

1 27438U 02027A 26264.50047729 .00000093 00000+0 00000+0 0 9999 2 27438 6.9886 68.5963 0003290 139.7066 195.0669 1.00272776 52326
UTC large
Height (km)
Speed (km/s)
/
Latitude / Longitude
Inclination (degrees)
Orbital Period (minutes)
Azimuth
Elevation
Range (km)
Doppler Factor

Next 0 passes for location: London (51.5072 / 0.1276)

No passes found over London.
INTELSAT 905 (IS-905)